GW0207 Weather Reports


Display with metric or nautical units.
time (UTC)temp
F
wind
direction
speed
MPH
gust
MPH
rain 1hr
in
rain 24hr
in
rain mn
in
humidity
%
barometer
mb
20260905150450 89 20 0.0 2.0 0.00 0.00 0.00 71 1011.3
20260905145732 88 34 0.0 2.0 0.00 0.00 0.00 71 1011.4
20260905145231 88 202 0.0 2.0 0.00 0.00 0.00 72 1011.4
20260905144731 88 339 0.0 3.0 0.00 0.00 0.00 72 1011.5
20260905144231 87 348 0.0 3.0 0.00 0.00 0.00 72 1011.5
20260905143956 88 20 0.0 2.0 0.00 0.00 0.00 73 1011.5
20260905143231 87 29 0.0 4.0 0.00 0.00 0.00 72 1011.5
20260905142952 87 35 0.0 4.0 0.00 0.00 0.00 73 1011.4
20260905142231 87 345 0.0 3.0 0.00 0.00 0.00 74 1011.3
20260905141730 87 50 0.0 4.0 0.00 0.00 0.00 75 1011.2
20260905141231 86 46 0.0 4.0 0.00 0.00 0.00 76 1011.2
20260905140733 86 15 0.0 1.0 0.00 0.00 0.00 77 1011.2
20260905140453 85 31 0.0 1.0 0.00 0.00 0.00 77 1011.2
20260905135731 85 22 0.0 2.0 0.00 0.00 0.00 79 1011.2
20260905135233 85 106 0.0 2.0 0.00 0.00 0.00 79 1011.2
20260905134731 84 14 0.0 1.0 0.00 0.00 0.00 79 1011.2
20260905134231 84 339 0.0 2.0 0.00 0.00 0.00 80 1011.2
20260905133736 83 27 0.0 2.0 0.00 0.00 0.00 80 1011.1
20260905133233 83 50 0.0 1.0 0.00 0.00 0.00 81 1011.3
20260905132949 83 4 0.0 1.0 0.00 0.00 0.00 82 1011.2
20260905132230 83 4 0.0 1.0 0.00 0.00 0.00 82 1011.1
20260905131731 83 31 0.0 1.0 0.00 0.00 0.00 83 1011.2
20260905131229 82 31 0.0 1.0 0.00 0.00 0.00 84 1011.1
20260905130728 81 8 0.0 1.0 0.00 0.00 0.00 85 1011.2
20260905130228 81 24 0.0 2.0 0.00 0.00 0.00 85 1011.2
20260905125729 80 161 0.0 2.0 0.00 0.00 0.00 87 1011.2
20260905125229 80 359 0.0 0.0 0.00 0.00 0.00 87 1011.4
20260905124728 79 359 0.0 1.0 0.00 0.00 0.00 88 1011.3
20260905124227 78 358 0.0 1.0 0.00 0.00 0.00 89 1011.4
20260905123720 78 23 0.0 1.0 0.00 0.00 0.00 90 1011.5
20260905123216 77 22 0.0 1.0 0.00 0.00 0.00 91 1011.4
20260905122709 76 0 0.0 1.0 0.00 0.00 0.00 92 1011.5
20260905122207 76 359 0.0 1.0 0.00 0.00 0.00 92 1011.4
20260905121927 76 35 0.0 1.0 0.00 0.00 0.00 93 1011.3
20260905121206 75 34 0.0 1.0 0.00 0.00 0.00 94 1011.3
20260905120925 75 37 0.0 1.0 0.00 0.00 0.00 94 1011.3
20260905120205 74 48 0.0 1.0 0.00 0.00 0.00 95 1011.4
20260905115923 74 76 0.0 0.0 0.00 0.00 0.00 95 1011.4
20260905115203 74 76 0.0 0.0 0.00 0.00 0.00 96 1011.3
20260905114702 73 76 0.0 0.0 0.00 0.00 0.00 96 1011.2
20260905114201 73 77 0.0 0.0 0.00 0.00 0.00 96 1011.0
20260905113701 72 78 0.0 0.0 0.00 0.00 0.00 96 1011.0
20260905113201 72 78 0.0 0.0 0.00 0.00 0.00 96 1011.0
20260905112701 72 78 0.0 0.0 0.00 0.00 0.00 96 1011.0
20260905112200 72 78 0.0 0.0 0.00 0.00 0.00 96 1010.9
20260905111924 72 78 0.0 0.0 0.00 0.00 0.00 96 1010.9
20260905111201 71 78 0.0 0.0 0.00 0.00 0.00 96 1010.9
20260905110700 72 80 0.0 0.0 0.00 0.00 0.00 96 1010.8
20260905110201 72 81 0.0 0.0 0.00 0.00 0.00 96 1010.8
20260905105700 72 81 0.0 0.0 0.00 0.00 0.00 95 1010.8
20260905105648 72 81 0.0 0.0 0.00 0.00 0.00 95 1010.7
20260905104701 72 81 0.0 0.0 0.00 0.00 0.00 95 1010.6
20260905104201 72 81 0.0 0.0 0.00 0.00 0.00 95 1010.6
20260905103701 72 81 0.0 1.0 0.00 0.00 0.00 95 1010.7
20260905103200 72 81 0.0 1.0 0.00 0.00 0.00 95 1010.5
20260905102701 72 81 0.0 0.0 0.00 0.00 0.00 95 1010.6
20260905102201 72 81 0.0 0.0 0.00 0.00 0.00 95 1010.6
20260905101701 72 81 0.0 0.0 0.00 0.00 0.00 95 1010.5
20260905101200 72 81 0.0 0.0 0.00 0.00 0.00 94 1010.5
20260905100700 72 81 0.0 0.0 0.00 0.00 0.00 94 1010.6
20260905100426 72 81 0.0 0.0 0.00 0.00 0.00 94 1010.6
20260905095701 72 81 0.0 0.0 0.00 0.00 0.00 94 1010.5
20260905095201 72 81 0.0 0.0 0.00 0.00 0.00 93 1010.5
20260905094701 73 81 0.0 0.0 0.00 0.00 0.00 93 1010.4
20260905094200 73 81 0.0 0.0 0.00 0.00 0.00 93 1010.4
20260905093701 73 81 0.0 0.0 0.00 0.00 0.00 93 1010.4
20260905093201 73 81 0.0 0.0 0.00 0.00 0.00 93 1010.5
20260905092701 73 81 0.0 0.0 0.00 0.00 0.00 93 1010.5
20260905092421 73 81 0.0 0.0 0.00 0.00 0.00 92 1010.5
20260905091700 73 81 0.0 0.0 0.00 0.00 0.00 92 1010.5
20260905091201 73 81 0.0 0.0 0.00 0.00 0.00 92 1010.6
20260905090924 74 81 0.0 0.0 0.00 0.00 0.00 92 1010.8
20260905090426 74 81 0.0 0.0 0.00 0.00 0.00 92 1010.8
20260905085701 74 81 0.0 0.0 0.00 0.00 0.00 92 1010.9
20260905085201 74 81 0.0 0.0 0.00 0.00 0.00 92 1010.9
20260905084701 74 81 0.0 0.0 0.00 0.00 0.00 92 1010.9
20260905084201 74 81 0.0 0.0 0.00 0.00 0.00 91 1010.9
20260905083701 74 81 0.0 0.0 0.00 0.00 0.00 91 1011.0
20260905083201 74 81 0.0 0.0 0.00 0.00 0.00 91 1010.9
20260905082701 74 81 0.0 0.0 0.00 0.00 0.00 91 1010.9
20260905082431 74 81 0.0 0.0 0.00 0.00 0.00 91 1011.0
20260905081701 74 81 0.0 0.0 0.00 0.00 0.00 91 1011.0
20260905081420 74 81 0.0 0.0 0.00 0.00 0.00 90 1011.1
20260905080700 74 81 0.0 0.0 0.00 0.00 0.00 90 1011.1
20260905080201 74 81 0.0 0.0 0.00 0.00 0.00 90 1011.1
20260905075920 74 81 0.0 0.0 0.00 0.00 0.00 90 1011.1
20260905075203 74 81 0.0 0.0 0.00 0.00 0.00 90 1011.2
20260905074700 75 81 0.0 0.0 0.00 0.00 0.00 89 1011.2
20260905074200 75 81 0.0 0.0 0.00 0.00 0.00 89 1011.3
20260905073924 75 81 0.0 0.0 0.00 0.00 0.00 89 1011.3
20260905073201 75 81 0.0 0.0 0.00 0.00 0.00 89 1011.2
20260905072701 75 81 0.0 0.0 0.00 0.00 0.00 89 1011.4
20260905072200 75 81 0.0 0.0 0.00 0.00 0.00 89 1011.5
20260905071700 75 81 0.0 0.0 0.00 0.00 0.00 89 1011.6
20260905071201 75 81 0.0 1.0 0.00 0.00 0.00 89 1011.6
20260905070701 75 81 0.0 1.0 0.00 0.00 0.00 89 1011.5
20260905070200 75 81 0.0 0.0 0.00 0.00 0.00 89 1011.6
20260905065701 75 81 0.0 1.0 0.00 0.00 0.00 89 1011.6
20260905065201 75 81 0.0 1.0 0.00 0.00 0.00 89 1011.8
20260905064920 75 81 0.0 0.0 0.00 0.00 0.00 89 1011.8
20260905064201 75 81 0.0 0.0 0.00 0.00 0.00 89 1011.9
20260905063700 75 81 0.0 0.0 0.00 0.00 0.00 90 1011.9
20260905063201 75 81 0.0 0.0 0.00 0.00 0.00 90 1012.0
20260905062703 75 81 0.0 0.0 0.00 0.00 0.00 89 1011.9
20260905062201 75 81 0.0 0.0 0.00 0.00 0.00 89 1012.2
20260905061927 75 81 0.0 0.0 0.00 0.00 0.00 89 1012.3
20260905061200 75 81 0.0 0.0 0.00 0.00 0.00 89 1012.5
20260905060701 75 81 0.0 0.0 0.00 0.00 0.00 89 1012.5
20260905060203 75 81 0.0 0.0 0.00 0.00 0.00 89 1012.5
20260905055704 75 81 0.0 0.0 0.00 0.00 0.00 89 1012.6
20260905055205 75 81 0.0 0.0 0.00 0.00 0.00 89 1012.6
20260905054701 76 81 0.0 0.0 0.00 0.00 0.00 89 1012.7
20260905054202 76 81 0.0 0.0 0.00 0.00 0.00 89 1012.6
20260905053702 76 81 0.0 1.0 0.00 0.00 0.00 89 1012.7
20260905053421 76 81 0.0 1.0 0.00 0.00 0.00 89 1012.9
20260905052701 76 81 0.0 1.0 0.00 0.00 0.00 89 1012.8
20260905052420 76 81 0.0 1.0 0.00 0.00 0.00 89 1012.9
20260905051700 76 81 0.0 1.0 0.00 0.00 0.00 89 1013.1
20260905051202 76 81 0.0 1.0 0.00 0.00 0.00 89 1013.2
20260905050702 76 81 0.0 0.0 0.00 0.00 0.00 89 1013.2
20260905050201 76 81 0.0 0.0 0.00 0.00 0.00 89 1013.3
20260905045701 76 81 0.0 0.0 0.00 0.00 0.00 89 1013.5
20260905045200 76 83 0.0 1.0 0.00 0.00 0.00 89 1013.6
20260905044701 76 57 0.0 2.0 0.00 0.00 0.00 89 1013.6
20260905044201 76 52 0.0 2.0 0.00 0.00 0.00 89 1013.6
20260905044142 76 209 0.0 2.0 0.00 0.00 0.00 89 1013.6
20260905043200 76 109 0.0 2.0 0.00 0.00 0.00 89 1013.6
20260905042703 77 233 0.0 5.0 0.00 0.00 0.00 89 1013.7
20260905042427 77 206 0.0 5.0 0.00 0.00 0.00 89 1013.6
20260905041701 77 80 0.0 2.0 0.00 0.00 0.00 89 1013.7
20260905041203 77 152 0.0 2.0 0.00 0.00 0.00 89 1013.7
20260905040920 77 188 0.0 1.0 0.00 0.00 0.00 89 1013.8
20260905040201 77 57 0.0 1.0 0.00 0.00 0.00 89 1013.6
20260905035703 77 52 0.0 1.0 0.00 0.00 0.00 90 1013.7
20260905035201 76 52 0.0 1.0 0.00 0.00 0.00 90 1013.6
20260905034847 76 48 0.0 1.0 0.00 0.00 0.00 90 1013.7
20260905034837 76 48 0.0 1.0 0.00 0.00 0.00 90 1013.6
20260905034620 76 67 0.0 1.0 0.00 0.00 0.00 91 1013.7
20260905033204 76 61 0.0 1.0 0.00 0.00 0.00 91 1013.7
20260905032703 76 81 0.0 2.0 0.00 0.00 0.00 90 1013.7
20260905032203 76 81 0.0 3.0 0.00 0.00 0.00 90 1013.6
20260905031922 76 60 1.0 3.0 0.00 0.00 0.00 90 1013.7
20260905031203 77 225 0.0 4.0 0.00 0.00 0.00 89 1013.7
20260905030703 77 158 0.0 4.0 0.00 0.00 0.00 89 1013.9
20260905030203 77 114 1.0 6.0 0.00 0.00 0.00 89 1014.1
20260905025703 77 222 1.0 6.0 0.00 0.00 0.00 88 1014.2
20260905025204 77 195 0.0 3.0 0.00 0.00 0.00 88 1014.1
20260905024704 77 209 0.0 2.0 0.00 0.00 0.00 87 1013.9
20260905024205 77 152 0.0 2.0 0.00 0.00 0.00 87 1014.0
20260905023703 77 264 0.0 2.0 0.00 0.00 0.00 87 1014.0
20260905023204 77 213 0.0 2.0 0.00 0.00 0.00 87 1014.0
20260905022700 77 224 0.0 3.0 0.00 0.00 0.00 87 1014.0
20260905022201 77 223 0.0 3.0 0.00 0.00 0.00 87 1014.0
20260905021701 77 270 0.0 6.0 0.00 0.00 0.00 87 1013.9
20260905021201 77 218 1.0 6.0 0.00 0.00 0.00 86 1014.3
20260905020702 78 29 0.0 5.0 0.00 0.00 0.00 86 1014.4
20260905020201 78 230 0.0 5.0 0.00 0.00 0.00 86 1014.4
20260905015923 78 266 0.0 2.0 0.00 0.00 0.00 86 1014.1
20260905015422 78 6 1.0 6.0 0.00 0.00 0.00 86 1013.8
20260905014701 78 217 1.0 8.0 0.00 0.00 0.00 85 1013.7
20260905014200 79 218 1.0 8.0 0.00 0.00 0.00 84 1014.0
20260905013701 79 240 1.0 3.0 0.00 0.00 0.00 83 1014.1
20260905013203 80 261 1.0 7.0 0.00 0.00 0.00 82 1014.3
20260905012703 80 228 1.0 7.0 0.00 0.00 0.00 81 1014.2
20260905012200 81 224 1.0 5.0 0.00 0.00 0.00 80 1014.1
20260905011701 83 254 2.0 8.0 0.00 0.00 0.00 78 1014.1
20260905011201 84 349 2.0 8.0 0.00 0.00 0.00 77 1014.1
20260905010918 86 246 2.0 9.0 0.00 0.00 0.00 73 1014.3
20260905010201 88 285 1.0 9.0 0.00 0.00 0.00 71 1014.0
20260905005701 88 329 0.0 4.0 0.00 0.00 0.00 71 1013.5
20260905005428 88 79 0.0 2.0 0.00 0.00 0.00 71 1013.4
20260905004701 88 243 0.0 2.0 0.00 0.00 0.00 70 1012.7
20260905004201 88 351 0.0 2.0 0.00 0.00 0.00 70 1012.1
20260905003701 88 17 1.0 5.0 0.00 0.00 0.00 70 1011.6
20260905003200 89 31 1.0 5.0 0.00 0.00 0.00 70 1011.3
20260905002701 89 26 0.0 3.0 0.00 0.00 0.00 70 1011.1
20260905002202 89 38 0.0 1.0 0.00 0.00 0.00 71 1011.3
20260905001922 89 41 0.0 1.0 0.00 0.00 0.00 71 1011.3
20260905001201 89 41 0.0 1.0 0.00 0.00 0.00 71 1011.2
20260905000702 89 38 0.0 1.0 0.00 0.00 0.00 71 1011.0
20260905000200 89 41 0.0 1.0 0.00 0.00 0.00 71 1011.0
20260904235703 89 41 0.0 1.0 0.00 0.00 0.00 71 1011.0
20260904235203 89 27 0.0 2.0 0.00 0.00 0.00 71 1011.0
20260904234703 89 27 0.0 2.0 0.00 0.00 0.00 71 1011.1
20260904234202 89 12 0.0 0.0 0.00 0.00 0.00 71 1011.3
20260904233703 89 12 0.0 1.0 0.00 0.00 0.00 70 1011.3
20260904233201 90 13 0.0 1.0 0.00 0.00 0.00 70 1011.3
20260904232702 90 14 0.0 0.0 0.00 0.00 0.00 69 1011.4
20260904232201 91 33 0.0 1.0 0.00 0.00 0.00 68 1011.5
20260904231701 91 34 0.0 1.0 0.00 0.00 0.00 68 1011.6
20260904231201 91 34 0.0 0.0 0.00 0.00 0.00 67 1011.7
20260904230701 91 34 0.0 1.0 0.00 0.00 0.00 67 1011.5
20260904230203 92 35 0.0 1.0 0.00 0.00 0.00 66 1011.5
20260904225701 92 36 0.0 1.0 0.00 0.00 0.00 66 1011.3
20260904225200 92 36 0.0 1.0 0.00 0.00 0.00 65 1011.2
20260904224701 92 36 0.0 1.0 0.00 0.00 0.00 65 1011.2
20260904224201 92 23 0.0 1.0 0.00 0.00 0.00 64 1011.1
20260904223701 93 30 0.0 1.0 0.00 0.00 0.00 64 1011.0
20260904223419 93 3 0.0 1.0 0.00 0.00 0.00 64 1011.1
20260904222701 93 355 0.0 1.0 0.00 0.00 0.00 65 1011.3
20260904222430 93 354 0.0 1.0 0.00 0.00 0.00 64 1011.2
20260904221703 93 48 0.0 1.0 0.00 0.00 0.00 64 1011.2
20260904221203 93 48 0.0 2.0 0.00 0.00 0.00 64 1011.3
20260904220703 93 64 0.0 2.0 0.00 0.00 0.00 63 1011.4
20260904220203 93 49 0.0 1.0 0.00 0.00 0.00 63 1011.5
20260904215703 94 26 0.0 1.0 0.00 0.00 0.00 62 1011.5
20260904215423 94 36 0.0 2.0 0.00 0.00 0.00 62 1011.7
20260904214703 94 38 0.0 3.0 0.00 0.00 0.00 61 1011.7
20260904214203 94 48 0.0 3.0 0.00 0.00 0.00 61 1011.5
20260904213703 94 57 0.0 2.0 0.00 0.00 0.00 61 1011.5
20260904213203 94 42 0.0 2.0 0.00 0.00 0.00 61 1011.5
20260904212704 95 27 0.0 4.0 0.00 0.00 0.00 60 1011.3
20260904212204 95 31 0.0 4.0 0.00 0.00 0.00 59 1011.4
20260904211702 95 16 0.0 4.0 0.00 0.00 0.00 59 1011.5
20260904211203 95 24 1.0 4.0 0.00 0.00 0.00 59 1011.5
20260904210704 96 37 0.0 3.0 0.00 0.00 0.00 58 1011.6
20260904210203 96 37 0.0 2.0 0.00 0.00 0.00 59 1011.3
20260904205926 96 41 0.0 2.0 0.00 0.00 0.00 58 1011.2
20260904205202 96 48 0.0 2.0 0.00 0.00 0.00 57 1011.0
20260904204704 97 15 0.0 1.0 0.00 0.00 0.00 57 1011.0
20260904204203 97 57 1.0 5.0 0.00 0.00 0.00 57 1010.7
20260904203703 97 311 1.0 5.0 0.00 0.00 0.00 56 1010.8
20260904203203 98 45 1.0 2.0 0.00 0.00 0.00 55 1010.9
20260904202703 98 9 1.0 2.0 0.00 0.00 0.00 55 1011.0
20260904202204 98 24 0.0 3.0 0.00 0.00 0.00 54 1011.1
20260904201703 99 54 0.0 3.0 0.00 0.00 0.00 55 1011.3
20260904201204 99 0 1.0 3.0 0.00 0.00 0.00 54 1011.4
20260904200703 99 330 1.0 3.0 0.00 0.00 0.00 54 1011.5
20260904200202 100 38 2.0 5.0 0.00 0.00 0.00 51 1011.8
20260904195704 100 28 1.0 5.0 0.00 0.00 0.00 50 1011.8
20260904195205 101 38 1.0 3.0 0.00 0.00 0.00 51 1011.9
20260904194703 100 50 1.0 4.0 0.00 0.00 0.00 50 1011.9
20260904194202 100 31 1.0 4.0 0.00 0.00 0.00 49 1012.0
20260904193703 100 38 1.0 3.0 0.00 0.00 0.00 49 1012.0
20260904193204 101 10 1.0 3.0 0.00 0.00 0.00 50 1012.2
20260904192703 101 48 1.0 3.0 0.00 0.00 0.00 51 1012.4
20260904192203 100 63 1.0 3.0 0.00 0.00 0.00 50 1012.3
20260904191703 100 57 1.0 2.0 0.00 0.00 0.00 51 1012.3
20260904191431 99 40 1.0 3.0 0.00 0.00 0.00 50 1012.5
20260904190703 100 98 1.0 3.0 0.00 0.00 0.00 50 1012.6
20260904190203 99 254 1.0 5.0 0.00 0.00 0.00 48 1012.6
20260904185703 99 31 1.0 5.0 0.00 0.00 0.00 50 1012.8
20260904185203 98 38 1.0 6.0 0.00 0.00 0.00 52 1012.9
20260904184704 98 121 1.0 6.0 0.00 0.00 0.00 52 1013.0
20260904184204 98 53 0.0 4.0 0.00 0.00 0.00 54 1013.1
20260904183704 98 195 0.0 3.0 0.00 0.00 0.00 52 1013.2
20260904183203 98 286 0.0 3.0 0.00 0.00 0.00 53 1013.3
20260904182705 98 29 0.0 3.0 0.00 0.00 0.00 55 1013.3
20260904182202 98 35 1.0 2.0 0.00 0.00 0.00 55 1013.4
20260904181703 98 270 1.0 3.0 0.00 0.00 0.00 54 1013.5
20260904181203 97 24 1.0 4.0 0.00 0.00 0.00 56 1013.5
20260904180703 97 33 1.0 4.0 0.00 0.00 0.00 57 1013.5
20260904180203 97 86 1.0 5.0 0.00 0.00 0.00 58 1013.6
20260904175923 97 269 1.0 5.0 0.00 0.00 0.00 58 1013.6
20260904175203 97 100 1.0 5.0 0.00 0.00 0.00 57 1013.7
20260904174703 97 38 1.0 5.0 0.00 0.00 0.00 58 1013.7
20260904174202 97 223 1.0 5.0 0.00 0.00 0.00 56 1013.7
20260904173702 97 43 1.0 3.0 0.00 0.00 0.00 61 1013.8
20260904173425 96 10 0.0 3.0 0.00 0.00 0.00 61 1013.9
20260904172703 96 12 0.0 3.0 0.00 0.00 0.00 62 1013.9
20260904172428 95 38 0.0 4.0 0.00 0.00 0.00 60 1013.9
20260904171656 95 13 1.0 4.0 0.00 0.00 0.00 61 1013.9
20260904171150 95 131 1.0 4.0 0.00 0.00 0.00 63 1014.0
20260904170644 95 313 1.0 3.0 0.00 0.00 0.00 63 1014.1
20260904170140 95 43 1.0 3.0 0.00 0.00 0.00 64 1014.1
20260904165637 95 64 0.0 2.0 0.00 0.00 0.00 65 1014.2
20260904165137 94 50 0.0 2.0 0.00 0.00 0.00 64 1014.2
20260904164636 94 22 1.0 2.0 0.00 0.00 0.00 65 1014.3
20260904164137 93 24 1.0 2.0 0.00 0.00 0.00 65 1014.4
20260904163638 93 353 0.0 2.0 0.00 0.00 0.00 66 1014.5
20260904163139 93 53 1.0 3.0 0.00 0.00 0.00 66 1014.6
20260904162636 93 39 1.0 3.0 0.00 0.00 0.00 66 1014.6
20260904162135 92 50 0.0 3.0 0.00 0.00 0.00 67 1014.7
20260904161635 92 40 1.0 3.0 0.00 0.00 0.00 67 1014.8
20260904161356 92 112 1.0 3.0 0.00 0.00 0.00 67 1014.9
20260904160635 92 32 0.0 3.0 0.00 0.00 0.00 70 1014.9
20260904160133 92 12 1.0 3.0 0.00 0.00 0.00 68 1014.9
20260904155631 92 30 1.0 3.0 0.00 0.00 0.00 68 1015.0
20260904155349 92 40 1.0 3.0 0.00 0.00 0.00 69 1015.0
20260904154859 91 36 1.0 2.0 0.00 0.00 0.00 70 1015.1
20260904154130 91 97 0.0 2.0 0.00 0.00 0.00 70 1015.1
20260904153631 91 33 0.0 2.0 0.00 0.00 0.00 71 1015.1
20260904153131 90 131 1.0 3.0 0.00 0.00 0.00 70 1015.1
20260904152632 91 20 0.0 3.0 0.00 0.00 0.00 71 1015.2
20260904152131 90 353 0.0 1.0 0.00 0.00 0.00 72 1015.1
20260904151630 90 342 0.0 2.0 0.00 0.00 0.00 71 1015.0
20260904151132 90 37 0.0 3.0 0.00 0.00 0.00 72 1015.0